CW3744 Weather Reports


Display with metric or nautical units.
time (UTC)temp
F
wind
direction
speed
MPH
gust
MPH
rain 1hr
in
rain 24hr
in
rain mn
in
humidity
%
barometer
mb
20260906114605 77 250 0.0 0.0 0.00 0.00 0.00 94 1013.0
20260906113019 78 251 0.0 0.0 0.00 0.00 0.00 94 1012.9
20260906111553 78 251 0.0 0.0 0.00 0.00 0.00 94 1012.7
20260906110029 78 251 0.0 2.0 0.00 0.04 0.00 93 1012.2
20260906104623 78 250 0.0 4.0 0.00 0.04 0.00 93 1011.7
20260906104500 78 250 0.0 4.0 0.00 0.04 0.00 93 1011.6
20260906103034 78 248 0.0 4.0 0.00 0.04 0.00 93 1011.4
20260906101507 78 261 0.0 2.0 0.00 0.04 0.00 93 1011.4
20260906100044 78 260 1.0 3.0 0.00 0.04 0.00 93 1011.6
20260906094513 79 262 0.0 4.0 0.00 0.04 0.00 93 1011.5
20260906093053 79 302 0.0 1.0 0.00 0.04 0.00 92 1011.4
20260906091512 79 310 0.0 4.0 0.00 0.04 0.00 92 1011.4
20260906090049 79 307 0.0 5.0 0.00 0.04 0.00 91 1011.2
20260906084523 79 277 1.0 7.0 0.00 0.04 0.00 91 1011.0
20260906083038 79 275 2.0 6.0 0.00 0.04 0.00 91 1011.1
20260906081552 79 263 1.0 7.0 0.00 0.04 0.00 91 1011.2
20260906080033 79 289 1.0 5.0 0.00 0.04 0.00 92 1011.3
20260906074601 79 280 0.0 4.0 0.00 0.04 0.00 92 1011.4
20260906073035 79 284 0.0 4.0 0.00 0.04 0.00 92 1011.4
20260906071504 80 171 0.0 5.0 0.00 0.04 0.00 92 1011.4
20260906070040 80 210 0.0 2.0 0.00 0.04 0.00 91 1011.5
20260906064512 80 265 0.0 4.0 0.00 0.04 0.00 91 1011.3
20260906063044 80 229 2.0 6.0 0.00 0.04 0.00 91 1011.7
20260906061513 80 239 0.0 5.0 0.00 0.04 0.00 91 1011.5
20260906060041 80 278 0.0 4.0 0.00 0.04 0.00 91 1011.9
20260906054516 80 188 0.0 5.0 0.00 0.04 0.00 91 1012.1
20260906053055 80 161 2.0 5.0 0.00 0.04 0.00 91 1012.2
20260906051534 81 181 0.0 2.0 0.00 0.04 0.00 91 1012.2
20260906050010 80 177 0.0 2.0 0.00 0.04 0.00 91 1012.1
20260906044544 81 156 1.0 5.0 0.00 0.04 0.00 91 1012.2
20260906043102 80 157 0.0 5.0 0.00 0.04 0.00 91 1012.3
20260906043002 80 157 0.0 5.0 0.00 0.04 0.00 91 1012.3
20260906041524 81 149 1.0 6.0 0.00 0.04 0.00 91 1012.1
20260906040050 81 156 1.0 4.0 0.00 0.04 0.04 90 1012.4
20260906034540 81 162 1.0 6.0 0.00 0.04 0.04 90 1012.5
20260906033110 81 180 1.0 3.0 0.00 0.04 0.04 90 1012.8
20260906033003 81 183 1.0 4.0 0.00 0.04 0.04 90 1012.7
20260906031546 81 140 0.0 4.0 0.00 0.04 0.04 90 1012.8
20260906030013 81 161 0.0 4.0 0.00 0.04 0.04 89 1013.1
20260906024607 81 140 0.0 5.0 0.00 0.04 0.04 89 1012.9
20260906023026 82 151 1.0 4.0 0.00 0.04 0.04 89 1012.9
20260906021504 82 157 0.0 3.0 0.00 0.04 0.04 89 1013.0
20260906020050 82 144 1.0 5.0 0.00 0.05 0.04 88 1012.8
20260906014520 82 155 2.0 6.0 0.00 0.05 0.04 89 1012.6
20260906013048 82 94 0.0 0.0 0.00 0.05 0.04 89 1012.4
20260906011522 82 93 0.0 2.0 0.00 0.05 0.04 89 1012.2
20260906010040 82 152 0.0 1.0 0.00 0.05 0.04 89 1012.0
20260906004518 83 152 0.0 2.0 0.00 0.05 0.04 89 1011.7
20260906003054 83 117 0.0 2.0 0.00 0.05 0.04 89 1011.5
20260906001526 83 117 0.0 4.0 0.00 0.05 0.04 88 1011.5
20260906000004 84 124 0.0 2.0 0.00 0.05 0.04 87 1011.3
20260905234516 85 137 0.0 2.0 0.00 0.05 0.04 85 1011.4
20260905233056 85 159 1.0 5.0 0.00 0.05 0.04 84 1011.5
20260905231541 86 108 1.0 4.0 0.00 0.05 0.04 83 1011.4
20260905230009 87 155 1.0 7.0 0.00 0.05 0.04 81 1011.5
20260905224547 88 72 0.0 4.0 0.00 0.05 0.04 78 1011.8
20260905223007 89 275 0.0 0.0 0.00 0.05 0.04 76 1011.8
20260905221551 90 275 0.0 0.0 0.00 0.05 0.04 76 1011.9
20260905220021 91 238 0.0 2.0 0.00 0.05 0.04 67 1011.9
20260905214555 91 176 0.0 2.0 0.00 0.05 0.04 66 1012.0
20260905213029 92 204 0.0 3.0 0.00 0.05 0.04 66 1012.0
20260905211518 91 279 2.0 7.0 0.00 0.05 0.04 65 1012.0
20260905210045 92 259 0.0 5.0 0.00 0.05 0.04 65 1011.9
20260905204522 94 241 3.0 8.0 0.00 0.05 0.04 63 1011.8
20260905203102 94 295 2.0 9.0 0.00 0.05 0.04 63 1011.5
20260905201535 93 300 5.0 8.0 0.00 0.05 0.04 64 1011.6
20260905200059 92 334 4.0 7.0 0.00 0.05 0.04 67 1011.7
20260905194510 91 283 3.0 10.0 0.00 0.05 0.04 67 1011.8
20260905193017 93 227 3.0 11.0 0.00 0.05 0.04 67 1012.2
20260905191551 93 180 2.0 8.0 0.00 0.05 0.04 67 1012.1
20260905190017 91 277 3.0 11.0 0.00 0.06 0.04 69 1012.4
20260905184551 91 3 3.0 9.0 0.00 0.06 0.04 69 1012.5
20260905183009 91 315 3.0 7.0 0.00 0.06 0.04 71 1013.0
20260905181537 90 290 3.0 8.0 0.00 0.06 0.04 73 1013.2
20260905180015 90 280 5.0 9.0 0.00 0.09 0.04 73 1013.5
20260905174548 89 336 5.0 8.0 0.00 0.09 0.04 76 1013.4
20260905173009 88 353 5.0 9.0 0.00 0.09 0.04 77 1013.7
20260905171547 89 299 4.0 8.0 0.00 0.09 0.04 76 1014.1
20260905170015 89 328 1.0 7.0 0.00 0.12 0.04 73 1014.2
20260905164547 87 314 2.0 8.0 0.00 0.12 0.04 78 1014.6
20260905163007 87 271 1.0 9.0 0.00 0.12 0.04 79 1014.9
20260905161524 86 281 1.0 6.0 0.00 0.12 0.04 81 1015.2
20260905160055 85 325 2.0 7.0 0.00 0.16 0.04 84 1015.4
20260905154537 85 292 2.0 7.0 0.00 0.16 0.04 82 1015.7
20260905153048 85 256 1.0 6.0 0.00 0.16 0.04 84 1015.7
20260905151519 84 273 3.0 7.0 0.00 0.16 0.04 84 1015.9
20260905150046 83 306 4.0 9.0 0.00 0.16 0.04 87 1015.6
20260905144515 83 284 2.0 7.0 0.00 0.16 0.04 86 1015.6
20260905143047 82 293 3.0 6.0 0.00 0.16 0.04 89 1015.6
20260905141521 81 292 3.0 6.0 0.00 0.16 0.04 90 1015.6
20260905140059 80 328 4.0 6.0 0.00 0.16 0.04 94 1015.8
20260905134542 79 311 1.0 7.0 0.00 0.16 0.04 97 1015.7
20260905133040 78 264 0.0 5.0 0.00 0.16 0.04 98 1015.6
20260905131510 78 286 0.0 5.0 0.00 0.16 0.04 99 1015.3
20260905130047 77 294 1.0 6.0 0.00 0.16 0.04 99 1015.3
20260905124520 77 282 0.0 3.0 0.00 0.16 0.04 99 1015.5
20260905123050 76 286 0.0 3.0 0.00 0.16 0.04 99 1015.4
20260905121506 76 281 1.0 5.0 0.00 0.16 0.04 99 1015.4
20260905120028 75 281 0.0 2.0 0.00 0.16 0.04 99 1015.1